• In Hungary
  • List of Countries
  • For 7 days
  • Water Temperature
  • Satellite Maps
  • Weather Map
  • News
  • Weather Widgets
  • user-avatar
    Login

    Hourly Weather Rashkovo

    Today, 23 October, Tuesday

    Time Temperature Precipitation Wind Pressure Humidity
    00:00 +6°C° 0.6 mm 4 mps 737 mmHg 87%
    01:00 +6°C° 0.6 mm 4 mps 736 mmHg 88%
    02:00 +6°C° 0.6 mm 4 mps 736 mmHg 89%
    03:00 +6°C° 0.4 mm 4 mps 735 mmHg 88%
    04:00 +6°C° 0.4 mm 4 mps 735 mmHg 88%
    05:00 +6°C° 0.4 mm 4 mps 735 mmHg 87%
    06:00 +5°C° 0.1 mm 4 mps 735 mmHg 85%
    07:00 +5°C° 0.1 mm 4 mps 735 mmHg 83%
    08:00 +5°C° 0.1 mm 4 mps 735 mmHg 80%
    09:00 +5°C° 0 mm 4 mps 735 mmHg 77%
    10:00 +5°C° 0 mm 3 mps 735 mmHg 74%
    11:00 +5°C° 0 mm 3 mps 734 mmHg 70%
    12:00 +5°C° 0 mm 3 mps 734 mmHg 70%
    13:00 +7°C° 0 mm 2 mps 734 mmHg 69%
    14:00 +7°C° 0 mm 2 mps 733 mmHg 68%
    15:00 +6°C° 0 mm 2 mps 733 mmHg 73%
    16:00 +5°C° 0 mm 2 mps 732 mmHg 78%
    17:00 +4°C° 0 mm 2 mps 732 mmHg 83%
    18:00 +4°C° 0 mm 2 mps 731 mmHg 85%
    19:00 +4°C° 0 mm 2 mps 731 mmHg 86%
    20:00 +4°C° 0 mm 2 mps 730 mmHg 87%
    21:00 +3°C° 0 mm 2 mps 729 mmHg 87%
    22:00 +3°C° 0 mm 2 mps 729 mmHg 88%
    23:00 +3°C° 0 mm 2 mps 728 mmHg 89%

    Tomorrow, 24 October, Wednesday

    Time Temperature Precipitation Wind Pressure Humidity
    00:00 +3°C° 0 mm 2 mps 727 mmHg 89%
    01:00 +3°C° 0 mm 2 mps 727 mmHg 90%
    02:00 +2°C° 0 mm 2 mps 726 mmHg 91%
    03:00 +2°C° 0 mm 2 mps 726 mmHg 91%
    04:00 +2°C° 0 mm 2 mps 725 mmHg 92%
    05:00 +2°C° 0 mm 2 mps 724 mmHg 92%
    06:00 +2°C° 0 mm 2 mps 724 mmHg 91%
    07:00 +2°C° 0 mm 2 mps 724 mmHg 89%
    08:00 +2°C° 0 mm 2 mps 724 mmHg 88%
    09:00 +2°C° 0 mm 3 mps 724 mmHg 83%
    10:00 +3°C° 0 mm 3 mps 724 mmHg 79%
    11:00 +4°C° 0 mm 3 mps 724 mmHg 74%
    12:00 +4°C° 0.1 mm 3 mps 724 mmHg 73%
    13:00 +4°C° 0.1 mm 3 mps 724 mmHg 72%
    14:00 +6°C° 0.1 mm 2 mps 724 mmHg 71%
    15:00 +5°C° 0.1 mm 2 mps 724 mmHg 76%
    16:00 +4°C° 0.1 mm 2 mps 724 mmHg 80%
    17:00 +4°C° 0.1 mm 2 mps 724 mmHg 85%
    18:00 +3°C° 0.1 mm 2 mps 724 mmHg 86%
    19:00 +3°C° 0.1 mm 2 mps 724 mmHg 88%
    20:00 +3°C° 0.1 mm 2 mps 724 mmHg 90%
    21:00 +3°C° 0 mm 2 mps 724 mmHg 91%
    22:00 +1°C° 0 mm 3 mps 724 mmHg 92%
    23:00 +1°C° 0 mm 3 mps 724 mmHg 93%

    Day after tomorrow, 25 October, Thursday

    Time Temperature Precipitation Wind Pressure Humidity
    00:00 +1°C° 0.1 mm 3 mps 724 mmHg 93%
    01:00 +1°C° 0.1 mm 3 mps 724 mmHg 92%
    02:00 +1°C° 0.1 mm 3 mps 724 mmHg 92%
    03:00 +1°C° 0.1 mm 3 mps 724 mmHg 91%
    04:00 0°C° 0.1 mm 4 mps 724 mmHg 91%
    05:00 0°C° 0.1 mm 4 mps 724 mmHg 90%
    06:00 0°C° 0 mm 4 mps 724 mmHg 89%
    07:00 0°C° 0 mm 4 mps 723 mmHg 88%
    08:00 0°C° 0 mm 4 mps 723 mmHg 87%
    09:00 +1°C° 0 mm 5 mps 723 mmHg 86%
    10:00 +1°C° 0 mm 5 mps 722 mmHg 84%
    11:00 +1°C° 0 mm 5 mps 722 mmHg 83%
    12:00 +1°C° 0.2 mm 6 mps 721 mmHg 82%
    13:00 +1°C° 0.2 mm 6 mps 721 mmHg 82%
    14:00 0°C° 0.2 mm 7 mps 720 mmHg 82%
    15:00 0°C° 0.7 mm 7 mps 720 mmHg 81%
    16:00 0°C° 0.7 mm 7 mps 719 mmHg 81%
    17:00 0°C° 0.7 mm 8 mps 719 mmHg 80%
    18:00 0°C° 0.7 mm 8 mps 718 mmHg 80%
    19:00 -1°C° 0.7 mm 8 mps 718 mmHg 80%
    20:00 -1°C° 0.7 mm 8 mps 718 mmHg 80%
    21:00 -1°C° 0.4 mm 8 mps 718 mmHg 80%
    22:00 -1°C° 0.4 mm 8 mps 719 mmHg 79%
    23:00 -1°C° 0.4 mm 8 mps 719 mmHg 78%

    26 October, Friday

    Time Temperature Precipitation Wind Pressure Humidity
    00:00 -1°C° 0.1 mm 7 mps 720 mmHg 78%
    01:00 -1°C° 0.1 mm 7 mps 720 mmHg 77%
    02:00 -2°C° 0.1 mm 7 mps 721 mmHg 77%
    03:00 -2°C° 0 mm 6 mps 722 mmHg 78%
    04:00 -2°C° 0 mm 6 mps 723 mmHg 78%
    05:00 -2°C° 0 mm 6 mps 723 mmHg 79%
    06:00 -3°C° 0 mm 6 mps 724 mmHg 79%
    07:00 -2°C° 0 mm 5 mps 725 mmHg 80%
    08:00 -2°C° 0 mm 5 mps 725 mmHg 80%
    09:00 -1°C° 0 mm 5 mps 726 mmHg 78%
    10:00 0°C° 0 mm 5 mps 727 mmHg 75%
    11:00 +1°C° 0 mm 6 mps 727 mmHg 72%
    12:00 +1°C° 0 mm 5 mps 728 mmHg 73%
    13:00 +1°C° 0 mm 5 mps 728 mmHg 73%
    14:00 +1°C° 0 mm 5 mps 728 mmHg 74%
    15:00 +1°C° 0 mm 4 mps 729 mmHg 76%
    16:00 0°C° 0 mm 4 mps 730 mmHg 78%
    17:00 0°C° 0 mm 4 mps 730 mmHg 80%
    18:00 0°C° 0 mm 4 mps 730 mmHg 82%
    19:00 0°C° 0 mm 3 mps 731 mmHg 84%
    20:00 0°C° 0 mm 3 mps 731 mmHg 86%
    21:00 -1°C° 0 mm 3 mps 732 mmHg 88%
    22:00 -1°C° 0 mm 3 mps 732 mmHg 90%
    23:00 -1°C° 0 mm 3 mps 733 mmHg 92%

    27 October, Saturday

    Time Temperature Precipitation Wind Pressure Humidity
    00:00 -2°C° 0 mm 3 mps 733 mmHg 92%
    01:00 -2°C° 0 mm 3 mps 734 mmHg 92%
    02:00 -2°C° 0 mm 3 mps 734 mmHg 93%
    03:00 -2°C° 0 mm 3 mps 735 mmHg 92%
    04:00 -2°C° 0 mm 3 mps 735 mmHg 92%
    05:00 -2°C° 0 mm 3 mps 736 mmHg 91%
    06:00 -2°C° 0 mm 3 mps 736 mmHg 90%
    07:00 -2°C° 0 mm 3 mps 737 mmHg 89%
    08:00 -1°C° 0 mm 3 mps 737 mmHg 88%
    09:00 0°C° 0 mm 3 mps 737 mmHg 84%
    10:00 +1°C° 0 mm 3 mps 738 mmHg 80%
    11:00 +1°C° 0 mm 3 mps 738 mmHg 76%
    12:00 +2°C° 0 mm 3 mps 738 mmHg 76%
    13:00 +2°C° 0 mm 3 mps 738 mmHg 76%
    14:00 +2°C° 0 mm 3 mps 737 mmHg 76%
    15:00 +1°C° 0.2 mm 3 mps 737 mmHg 80%
    16:00 +1°C° 0.2 mm 3 mps 737 mmHg 83%
    17:00 0°C° 0.2 mm 4 mps 736 mmHg 86%
    18:00 0°C° 1.2 mm 4 mps 735 mmHg 87%
    19:00 +1°C° 1.2 mm 5 mps 735 mmHg 88%
    20:00 +1°C° 1.2 mm 5 mps 734 mmHg 89%
    21:00 +2°C° 0.5 mm 5 mps 734 mmHg 89%
    22:00 +2°C° 0.5 mm 5 mps 733 mmHg 90%
    23:00 +3°C° 0.5 mm 5 mps 733 mmHg 90%

    28 October, Sunday

    Time Temperature Precipitation Wind Pressure Humidity
    00:00 +3°C° 0.1 mm 5 mps 733 mmHg 91%
    01:00 +4°C° 0.1 mm 4 mps 733 mmHg 91%
    02:00 +5°C° 0.1 mm 4 mps 734 mmHg 92%
    03:00 +4°C° 0 mm 4 mps 734 mmHg 93%
    04:00 +4°C° 0 mm 3 mps 734 mmHg 94%
    05:00 +4°C° 0 mm 3 mps 734 mmHg 95%
    06:00 +4°C° 0 mm 3 mps 735 mmHg 95%
    07:00 +4°C° 0 mm 2 mps 735 mmHg 95%
    08:00 +4°C° 0 mm 2 mps 735 mmHg 96%
    09:00 +5°C° 0 mm 2 mps 736 mmHg 93%
    10:00 +5°C° 0 mm 2 mps 736 mmHg 90%
    11:00 +7°C° 0 mm 1 mps 736 mmHg 87%
    12:00 +7°C° 0 mm 1 mps 736 mmHg 87%
    13:00 +7°C° 0 mm 1 mps 737 mmHg 88%
    14:00 +6°C° 0 mm 0 mps 737 mmHg 89%
    15:00 +6°C° 0.1 mm 1 mps 736 mmHg 91%
    16:00 +6°C° 0.1 mm 1 mps 736 mmHg 93%
    17:00 +4°C° 0.1 mm 2 mps 736 mmHg 95%
    18:00 +4°C° 0.8 mm 2 mps 735 mmHg 95%
    19:00 +4°C° 0.8 mm 2 mps 735 mmHg 95%
    20:00 +3°C° 0.8 mm 3 mps 735 mmHg 95%
    21:00 +4°C° 0.2 mm 3 mps 734 mmHg 94%
    22:00 +4°C° 0.2 mm 3 mps 733 mmHg 93%
    23:00 +4°C° 0.2 mm 4 mps 733 mmHg 93%
    Show more